Location: Kirche
(47.3333°N, 10.1667°E)
Time: 00:13:16
(UTC+00:00)

Daily predictions for brighter satellites

Satellite Brightness Start Highest point End
(mag) Time Altitude Azimuth Time Altitude Azimuth Time Altitude Azimuth
STARLINK-1105 4.3 00:00:10 10° NW 00:03:07 39° NNE 00:06:04 10° E
STARLINK-1209 3.8 00:00:23 10° NW 00:03:28 48° NNE 00:06:33 10° E
STARLINK-1247 4.3 00:01:04 10° NW 00:04:03 40° NNE 00:07:01 10° E
STARLINK-1227 4.2 00:01:32 10° NW 00:04:30 39° NNE 00:07:26 10° E
ATLAS CENTAUR R/B 3.5 00:03:00 10° NNW 00:05:02 25° NE 00:08:25 10° E
STARLINK-1226 4.2 00:02:23 10° NW 00:05:22 40° NNE 00:08:20 10° E
STARLINK-1215 4.2 00:03:19 10° NW 00:06:18 40° NNE 00:09:18 10° E
Nadezhda 2 Rocket 4.4 00:04:33 37° S 00:07:06 81° E 00:13:15 10° N
STARLINK-1217 4.2 00:05:05 10° NW 00:08:05 41° NNE 00:11:04 10° E
STARLINK-1229 4.1 00:06:00 10° NW 00:09:00 42° NNE 00:12:00 10° E
STARLINK-1270 4.1 00:06:52 10° NW 00:09:53 42° NNE 00:12:52 10° E
GEOS 3 Rocket 3.5 00:07:39 32° SSE 00:10:07 77° SW 00:15:26 10° NW
Cosmos 1726 3.7 00:08:02 10° NW 00:10:54 23° W 00:10:54 23° W
STARLINK-1189 4.1 00:08:43 10° NW 00:11:44 43° NNE 00:14:43 10° E
Cosmos 2058 Rocket 3.1 00:07:59 10° N 00:12:25 73° E 00:13:46 44° SSE
STARLINK-1188 4.1 00:09:36 10° NW 00:12:36 43° NNE 00:15:37 10° E
STARLINK-1235 3.7 00:10:17 10° NW 00:13:19 50° NNE 00:16:21 10° E
Meteor 1-29 2.7 00:10:03 10° NNE 00:13:27 85° WNW 00:13:32 83° WSW
STARLINK-1187 3.9 00:10:42 10° NW 00:13:43 46° NNE 00:16:43 10° E
COSMOS 2455 2.8 00:11:39 38° SSW 00:14:03 77° ESE 00:20:06 10° NE
Cosmos 2228 3.1 00:10:44 10° NNW 00:14:54 55° W 00:15:32 49° SW
STARLINK-1191 4.0 00:12:05 10° NW 00:15:04 44° NNE 00:18:04 10° E
STARLINK-1221 4.0 00:12:57 10° NW 00:15:56 45° NNE 00:18:57 10° E
SJ 16-02 3.9 00:12:46 10° N 00:15:58 19° NE 00:19:09 10° E
STARLINK-1222 4.0 00:13:50 10° NW 00:16:51 45° NNE 00:19:51 10° E
STARLINK-1214 3.9 00:14:45 10° NW 00:17:46 45° NNE 00:20:46 10° E
Cosmos 1953 4.1 00:16:23 10° NW 00:19:15 19° W 00:19:26 19° W
SL-14 R/B 3.4 00:18:39 52° SE 00:19:20 63° E 00:23:10 10° NNE
IRAS Rocket 4.2 00:17:53 34° SSE 00:20:28 84° WSW 00:26:04 10° NNW
Cosmos 1340 Rocket 4.2 00:17:42 10° NW 00:21:00 24° W 00:21:08 24° W
Okean 1-7 Rocket 3.5 00:22:03 48° S 00:23:16 84° E 00:27:47 10° N
Cosmos 1174 3.1 00:23:33 85° SSE 00:23:36 86° ESE 00:27:14 10° NE
Cosmos 1300 2.8 00:20:22 10° N 00:24:11 70° E 00:25:04 49° SE
Cosmos 921 Rocket 3.6 00:23:34 36° SE 00:24:39 44° ESE 00:28:45 10° NNE
BREEZE M DEB (TANK) 2.7 00:26:49 46° ENE 00:26:49 46° ENE 00:29:22 10° E
COSMOS 2487 3.4 00:24:37 10° NW 00:27:18 33° W 00:27:18 33° W
Cosmos 1626 Rocket 4.3 00:29:35 30° SE 00:31:12 43° E 00:35:19 10° NNE
Cosmos 2219 4.1 00:27:25 10° NNW 00:32:55 47° NE 00:38:20 10° SE
Cosmos 1626 2.0 00:34:31 60° SSW 00:35:06 81° W 00:38:51 10° N
STARLINK-60 2.9 00:36:27 74° ESE 00:36:27 74° ESE 00:39:31 10° ENE
Cosmos 1606 Rocket 4.5 00:34:20 10° NNW 00:38:10 31° W 00:38:48 30° WSW
FALCON 9 R/B 3.7 00:38:25 29° SSW 00:41:28 39° SSE 00:59:30 10° ESE
Nadezhda 1 Rocket 4.0 00:35:33 10° N 00:41:44 78° E 00:45:52 23° SSE
MOZ.5/SAFIR/RUBIN 5/SL-8 3.7 00:44:16 31° SSE 00:46:29 88° ENE 00:51:09 10° NNW
UNK 4.0 00:44:00 23° SSE 00:46:47 68° ENE 00:51:22 10° N
Cosmos 220 Rocket 4.3 00:46:16 36° SSE 00:47:48 57° ESE 00:52:10 10° NNE
Cosmos 2297 Rocket 3.0 00:43:06 10° NNW 00:48:36 50° ENE 00:54:05 10° SE
SL-4 R/B 2.3 00:49:12 33° SW 00:51:24 81° SSE 00:56:08 10° ENE
Cosmos 1812 Rocket 4.1 00:47:12 10° N 00:51:38 56° ENE 00:54:29 21° SSE
CZ-4B R/B 4.3 00:47:14 10° NNE 00:52:10 45° E 00:55:16 21° SSE
Cosmos 1437 2.3 00:52:48 76° SW 00:52:57 82° W 00:55:59 10° N
STARLINK-1233 4.4 00:50:17 10° WNW 00:54:21 53° NNE 00:58:25 10° E
SL-19 R/B 4.4 00:51:54 10° N 00:57:12 60° WNW 01:00:03 28° SW
ATLAS CENTAUR R/B 1.8 00:56:57 30° WSW 00:58:51 57° NW 01:02:56 10° NNE
STARLINK-1204 4.3 00:55:16 10° WNW 00:59:22 55° NNE 01:03:26 10° E
Cosmos 1777 Rocket 4.4 00:55:04 10° NW 01:00:01 44° WSW 01:01:54 31° SSW
Timation 2 Rocket 4.0 00:54:14 10° NW 01:00:30 61° WSW 01:04:30 22° S
SL-16 R/B 2.5 00:56:01 20° SSE 01:00:33 85° WSW 01:06:46 10° NNW
NOSS 3-4 (A) 4.1 00:57:31 17° WSW 01:01:58 50° NW 01:08:16 10° NE
NOSS 3-4 (C) 4.1 00:57:37 18° WSW 01:02:04 50° NW 01:08:22 10° NE
BREEZE-M R/B 3.1 01:01:07 36° SSW 01:02:23 48° SSE 01:05:21 10° E
FALCON 9 DEB 3.6 01:02:08 40° SSE 01:02:26 42° SE 01:05:43 10° ENE
Cosmos 1602 Rocket 3.6 01:01:57 32° S 01:03:54 74° E 01:08:14 10° NNE
STARLINK-1238 4.2 01:00:14 10° WNW 01:04:20 58° NNE 01:08:25 10° E
STARLINK-29 2.8 01:04:34 59° SSW 01:04:58 68° SSE 01:08:09 10° ENE
Cosmos 1455 3.2 01:02:59 10° N 01:06:35 42° ENE 01:09:23 15° SE
ATLAS 3B R/B 3.0 01:01:20 10° NW 01:07:47 47° WSW 01:12:43 18° S
BREEZE-M DEB (TANK) 3.8 01:09:30 16° ESE 01:09:30 16° ESE 01:10:25 10° E
STARLINK-1201 4.2 01:05:14 10° WNW 01:09:21 61° NNE 01:13:27 10° ESE
IRS-1D 4.4 01:06:15 10° NNE 01:11:23 45° E 01:15:17 16° SSE
CENTAUR R/B 4.1 01:04:38 10° NW 01:11:23 29° WSW 01:14:47 22° SW
GP-B 3.9 01:08:31 10° NNE 01:12:50 49° E 01:16:10 16° SSE
BREEZE-M DEB (TANK) 1.3 01:12:38 37° W 01:13:26 69° NNW 01:15:45 10° ENE
Meteor 2-1 Rocket 4.1 01:08:26 10° NNW 01:13:58 85° W 01:18:04 19° S
STARLINK-1365 4.5 01:13:46 25° SSE 01:14:18 26° SE 01:17:19 10° E
STARLINK-1206 4.1 01:10:12 10° WNW 01:14:20 64° NNE 01:18:27 10° ESE
Cosmos-2242 4.1 01:12:06 10° N 01:16:12 43° ENE 01:20:15 10° SSE
Cosmos 1745 Rocket 4.0 01:12:45 26° SSW 01:16:24 68° W 01:22:32 10° N
STARLINK-1373 4.4 01:17:22 25° SSE 01:18:01 27° SE 01:21:05 10° ENE
STARLINK-1205 4.0 01:15:11 10° WNW 01:19:19 67° NNE 01:23:27 10° ESE
STARLINK-1390 4.4 01:19:27 26° SSE 01:20:10 28° SE 01:23:15 10° ENE
RESURS DK-1 2.8 01:19:17 28° WSW 01:21:12 52° WNW 01:25:16 10° NNE
EP 2 4.5 01:21:04 46° SSW 01:21:49 80° SE 01:24:58 10° NE
Cosmos 2181 Rocket 4.5 01:16:28 10° N 01:22:51 64° ENE 01:29:15 10° SSE
Cosmos 1356 Rocket 3.9 01:20:16 10° NNW 01:24:12 43° W 01:25:49 29° SW
Cosmos 2227 Rocket 2.3 01:18:34 10° NNW 01:24:17 78° ENE 01:29:57 10° SSE
STARLINK-1218 3.9 01:20:09 10° WNW 01:24:18 71° NNE 01:28:26 10° ESE
CZ-2D R/B 2.1 01:21:44 10° N 01:27:00 73° WNW 01:30:15 24° SSW
Cosmos 1763 Rocket 4.2 01:23:45 17° S 01:27:22 46° ESE 01:32:13 10° NNE
Cosmos 1697 Rocket 3.9 01:23:12 13° SSE 01:27:37 34° ESE 01:32:41 10° NE
STARLINK-1254 3.8 01:25:08 10° WNW 01:29:17 75° NNE 01:33:26 10° ESE
Cosmos 1703 4.1 01:26:47 17° SSE 01:29:32 48° E 01:33:21 10° NNE
ADEOS II 2.8 01:24:34 10° NNE 01:29:41 50° E 01:34:07 14° S
ATLAS 2AS CENTAUR R/B 3.9 01:23:36 10° WSW 01:31:10 43° NW 01:38:37 10° NE
CZ-4C R/B 4.3 01:30:46 26° SW 01:32:14 34° W 01:36:12 10° NNW
STARLINK-1231 3.7 01:30:08 10° WNW 01:34:18 79° NNE 01:38:27 10° ESE
STARLINK-1228 3.6 01:32:48 10° WNW 01:35:54 36° SW 01:38:59 10° SSE
Resurs 1-4 Rocket 2.3 01:31:31 10° N 01:36:44 60° WNW 01:40:11 21° SW
STARLINK-1234 3.4 01:34:14 10° WNW 01:41:18 - SE 01:37:02 34° SW
STARLINK-1212 3.1 01:35:31 10° WNW 01:38:31 45° SW 01:41:29 10° SE
STARLINK-1105 3.1 01:36:00 10° WNW 01:38:58 44° SW 01:41:56 10° SE
STARLINK-1232 3.6 01:35:07 10° WNW 01:39:17 84° NNE 01:43:26 10° ESE
STARLINK-1209 3.9 01:36:31 10° WNW 01:38:43 28° WSW 01:38:43 28° WSW
USA 81 4.1 01:36:19 21° SSW 01:39:50 67° W 01:45:07 10° N
STARLINK-1247 3.1 01:36:54 10° WNW 01:39:54 44° SW 01:42:53 10° SE
STARLINK-1227 3.1 01:37:23 10° WNW 01:40:20 43° SW 01:43:17 10° SE
STARLINK-1226 3.1 01:38:13 10° WNW 01:41:13 42° SW 01:44:11 10° SE
STARLINK-52 3.0 01:39:41 25° WSW 01:41:24 73° NNW 01:44:37 10° ENE
ARIANE 5 R/B 3.6 01:37:01 10° NNE 01:41:47 39° E 01:46:27 10° SSE
STARLINK-1215 3.2 01:39:10 10° WNW 01:42:09 42° SW 01:45:07 10° SE
Cosmos 1758 Rocket 3.5 01:39:23 20° S 01:42:17 89° ESE 01:46:42 10° N
STARLINK-1217 3.2 01:40:57 10° WNW 01:43:55 40° SW 01:46:51 10° SE
NPP 3.8 01:38:50 10° N 01:44:10 61° WNW 01:47:57 19° SW
STARLINK-1208 3.6 01:40:04 10° WNW 01:44:15 89° NE 01:48:23 10° ESE
STARLINK-1229 3.2 01:41:53 10° WNW 01:44:50 40° SW 01:47:47 10° SE
H-2A R/B 3.8 01:40:57 10° SE 01:44:50 34° ENE 01:48:50 10° N
STARLINK-1270 3.3 01:42:44 10° WNW 01:45:41 39° SW 01:48:38 10° SSE
STARLINK-1189 3.3 01:44:36 10° WNW 01:47:31 38° SW 01:50:27 10° SSE
STARLINK-1188 3.3 01:45:29 10° WNW 01:48:24 37° SW 01:51:19 10° SSE
STARLINK-1235 3.7 01:46:16 10° WNW 01:49:01 29° SW 01:51:45 10° SSE
STARLINK-1271 3.5 01:45:04 10° WNW 01:49:14 86° SSW 01:53:23 10° ESE
Cosmos 1898 Rocket 3.5 01:44:05 10° NNW 01:49:27 79° WSW 01:54:45 10° SSE
STARLINK-1187 3.5 01:46:38 10° WNW 01:49:28 32° SW 01:52:16 10° SSE
STARLINK-1191 3.4 01:47:58 10° WNW 01:50:51 35° SW 01:53:42 10° SSE
Meteor 1-21 Rocket 4.3 01:46:49 19° SSW 01:50:52 66° WNW 01:56:33 10° N
Starlink 7 placeholder 4.3 01:49:43 11° WNW 01:51:05 19° NNW 01:52:39 10° NE
Lacrosse 4 Rocket 2.8 01:47:03 10° NNW 01:51:14 43° NE 01:55:18 10° ESE
STARLINK-1221 3.4 01:48:51 10° WNW 01:51:43 34° SW 01:54:35 10° SSE
Cosmos 1656 3.7 01:48:20 19° SSW 01:52:35 89° WNW 01:58:15 10° NNE
STARLINK-1222 3.4 01:49:45 10° WNW 01:52:36 34° SW 01:55:27 10° SSE
STARLINK-1214 3.5 01:50:40 10° WNW 01:53:31 33° SW 01:56:20 10° SSE
STARLINK-1154 3.5 01:50:03 10° WNW 01:54:13 81° SSW 01:58:21 10° SE
CZ-4C R/B 2.8 01:50:43 15° S 01:54:34 46° ESE 02:00:07 10° NE
SJ 16-02 1.4 01:50:34 10° NNW 01:54:55 56° WSW 01:59:15 10° S
Cosmos 2285 Rocket 4.1 01:48:31 10° NNW 01:54:57 81° ENE 02:01:18 10° SSE
IDEFIX/ARIANE 42P 4.3 01:50:31 10° NE 01:55:04 29° E 01:59:35 10° SSE
Cosmos 2084 3.9 01:52:18 18° WSW 01:55:30 58° NW 01:59:56 10° NE
Cosmos 468 Rocket 3.9 01:52:22 18° SSW 01:56:14 87° WNW 02:01:24 10° NNE
Cosmos 1953 Rocket 3.7 01:54:38 13° S 01:58:36 74° E 02:03:04 10° NNE
STARLINK-1197 3.5 01:55:02 10° WNW 01:59:11 76° SSW 02:03:19 10° SE
Cosmos 1937 Rocket 3.5 01:54:27 10° NNW 01:59:43 87° WSW 02:04:59 10° SSE
COSMOS 2455 4.4 01:55:32 10° W 02:00:37 28° NW 02:05:44 10° NNE
Cosmos 2369 4.1 01:55:55 13° S 02:00:53 58° ESE 02:06:26 10° NE
Meteor 2-10 Rocket 3.9 01:56:35 10° NNW 02:01:42 47° W 02:06:00 13° SSW
STARLINK-1198 3.5 02:00:00 10° WNW 02:04:08 71° SSW 02:08:15 10° SE
Cosmos 1709 Rocket 4.3 02:01:48 16° SSW 02:06:36 51° WNW 02:12:35 10° N
STARLINK-1199 3.5 02:05:01 10° WNW 02:09:08 66° SSW 02:13:14 10° SE
STARLINK-1210 3.6 02:10:00 10° WNW 02:14:05 61° SW 02:18:10 10° SE
STARLINK-1200 4.4 02:12:15 10° WNW 02:16:20 54° NNE 02:20:24 10° E
Cosmos 2219 4.0 02:11:57 10° NW 02:16:52 31° WSW 02:21:43 10° SSW
STARLINK-1320 2.8 02:14:52 16° WSW 02:17:11 85° SSE 02:20:19 10° ENE
STARLINK-1322 2.8 02:15:11 16° WSW 02:17:32 85° SE 02:20:40 10° ENE
STARLINK-1324 2.8 02:15:32 16° WSW 02:17:53 86° SSE 02:21:01 10° ENE
STARLINK-1294 2.8 02:15:48 16° WSW 02:18:10 86° SSE 02:21:19 10° ENE
STARLINK-1261 2.8 02:16:09 16° WSW 02:18:32 87° SSE 02:21:40 10° ENE
STARLINK-1325 2.8 02:16:30 16° WSW 02:18:54 87° SE 02:22:02 10° ENE
STARLINK-1219 3.6 02:14:58 10° WNW 02:19:03 57° SW 02:23:06 10° SE
STARLINK-1333 2.8 02:16:48 16° WSW 02:19:12 88° SSE 02:22:20 10° ENE
STARLINK-1334 2.8 02:17:07 16° WSW 02:19:32 88° SSE 02:22:40 10° ENE
Cosmos 1980 Rocket 3.0 02:14:28 10° S 02:19:48 48° ESE 02:25:12 10° NE
STARLINK-1326 2.8 02:17:28 15° WSW 02:19:53 89° SSE 02:23:02 10° ENE
STARLINK-1323 2.8 02:17:47 15° WSW 02:20:14 89° SSE 02:23:22 10° ENE
STARLINK-1338 3.1 02:17:39 15° WSW 02:20:27 82° SSE 02:23:56 10° ENE
STARLINK-1349 2.8 02:18:06 15° WSW 02:20:33 89° SSW 02:23:42 10° ENE
STARLINK-1336 2.8 02:18:28 15° WSW 02:20:56 90° N 02:24:03 10° ENE
STARLINK-1331 2.8 02:18:45 15° WSW 02:21:14 89° NW 02:24:22 10° ENE
STARLINK-1192 4.4 02:17:14 10° WNW 02:21:20 57° NNE 02:25:25 10° E
STARLINK-1344 2.8 02:19:05 15° WSW 02:21:34 89° NNW 02:24:43 10° ENE
STARLINK-1343 2.8 02:19:25 15° WSW 02:21:55 88° NW 02:25:03 10° ENE
CZ-4B R/B 4.3 02:20:18 10° ESE 02:22:13 16° ENE 02:24:10 10° NNE
STARLINK-1346 2.9 02:19:43 15° WSW 02:22:17 88° NNW 02:25:27 10° ENE
Cosmos 1328 4.3 02:19:19 14° SSW 02:22:32 45° WNW 02:26:24 10° N
STARLINK-1328 2.8 02:20:05 15° WSW 02:22:37 88° NNW 02:25:45 10° ENE
STARLINK-1354 2.8 02:20:22 14° WSW 02:22:55 87° NW 02:26:03 10° ENE
STARLINK-1347 2.8 02:20:44 14° WSW 02:23:17 87° NNW 02:26:25 10° ENE
STARLINK-1357 2.8 02:21:02 14° WSW 02:23:35 86° NW 02:26:44 10° ENE
STARLINK-1335 2.8 02:21:22 14° WSW 02:23:56 86° NNW 02:27:05 10° ENE
STARLINK-1211 3.7 02:19:58 10° WNW 02:24:00 52° SW 02:28:01 10° SE
STARLINK-1327 2.8 02:21:41 14° WSW 02:24:16 85° NW 02:27:25 10° ENE
ERS-2 2.1 02:20:48 10° S 02:24:26 71° WSW 02:28:07 10° NNW
STARLINK-1371 3.1 02:21:31 14° WSW 02:24:29 87° SSE 02:28:00 10° ENE
STARLINK-1340 2.8 02:22:01 14° WSW 02:24:38 85° NNW 02:27:46 10° ENE
STARLINK-1356 2.8 02:22:21 14° WSW 02:24:58 84° NNW 02:28:06 10° ENE
STARLINK-1345 2.9 02:22:41 14° WSW 02:25:19 84° NNW 02:28:27 10° ENE
STARLINK-1355 2.9 02:22:59 14° WSW 02:25:38 84° NNW 02:28:47 10° ENE
STARLINK-1321 2.9 02:23:18 13° WSW 02:25:58 83° NNW 02:29:05 10° ENE
STARLINK-1244 4.3 02:22:12 10° WNW 02:26:19 60° NNE 02:30:24 10° ESE
STARLINK-1358 2.9 02:23:39 13° WSW 02:26:19 83° NNW 02:29:28 10° ENE
STARLINK-1341 3.1 02:23:29 13° WSW 02:26:32 89° SSE 02:30:03 10° ENE
STARLINK-1332 2.9 02:23:57 13° WSW 02:26:39 82° NNW 02:29:47 10° ENE
STARLINK-1348 2.9 02:24:18 13° WSW 02:27:00 82° NNW 02:30:08 10° ENE
STARLINK-1330 2.9 02:24:36 13° WSW 02:27:19 81° NNW 02:30:27 10° ENE
STARLINK-1363 2.9 02:24:56 13° WSW 02:27:39 81° NNW 02:30:48 10° ENE
IRS-1C 4.3 02:22:37 10° N 02:27:55 66° WNW 02:33:11 10° SSW
STARLINK-1337 2.9 02:25:15 13° WSW 02:28:00 80° NNW 02:31:08 10° ENE
STARLINK-1342 2.9 02:25:35 13° WSW 02:28:21 80° NNW 02:31:28 10° ENE
STARLINK-1374 3.2 02:25:26 13° WSW 02:28:35 88° NNW 02:32:06 10° ENE
STARLINK-1364 2.9 02:25:55 13° WSW 02:28:41 80° NNW 02:31:49 10° ENE
STARLINK-1245 3.8 02:24:58 10° WNW 02:28:59 48° SW 02:32:58 10° SE
STARLINK-1376 2.9 02:26:15 12° WSW 02:29:02 79° NNW 02:32:09 10° ENE
STARLINK-1360 2.9 02:26:30 12° WSW 02:29:18 79° NNW 02:32:26 10° ENE
STARLINK-1361 2.9 02:26:56 12° WSW 02:29:44 78° NNW 02:32:52 10° ENE
STARLINK-1367 2.9 02:27:10 12° WSW 02:30:01 78° NNW 02:33:11 10° ENE
STARLINK-1366 2.9 02:27:33 12° WSW 02:30:23 77° NNW 02:33:31 10° ENE
STARLINK-1339 3.2 02:27:27 12° WSW 02:30:40 86° NNW 02:34:11 10° ENE
STARLINK-1138 4.2 02:27:11 10° WNW 02:31:17 63° NNE 02:35:24 10° ESE
SL-4 R/B 3.1 02:26:42 10° W 02:31:24 52° N 02:35:54 10° ENE
Cosmos 2297 Rocket 3.1 02:27:36 10° NW 02:32:23 29° WSW 02:37:08 10° SSW
STARLINK-1377 3.2 02:29:28 11° WSW 02:32:46 83° NNW 02:36:18 10° ENE
STARLINK-1233 3.9 02:29:57 10° WNW 02:33:56 45° SW 02:37:53 10° SE
STARLINK-1203 4.1 02:29:59 10° WNW 02:34:11 66° NNE 02:38:22 10° ESE
STARLINK-1353 3.2 02:31:17 11° WSW 02:34:37 81° NNW 02:38:07 10° ENE
STARLINK-1143 4.1 02:32:09 10° WNW 02:36:17 66° NNE 02:40:25 10° ESE
Cosmos 2082 3.9 02:30:51 10° NW 02:36:19 51° WSW 02:41:44 10° S
STARLINK-1375 3.2 02:33:04 10° WSW 02:36:29 79° NNW 02:39:59 10° ENE
Cosmos 540 Rocket 3.5 02:32:47 10° SSW 02:37:56 88° WNW 02:43:06 10° NNE
ATLAS CENTAUR R/B 3.9 02:36:26 10° WNW 02:38:32 13° NNW 02:40:37 10° N
STARLINK-1350 3.2 02:35:25 10° WSW 02:38:53 76° NNW 02:42:22 10° ENE
STARLINK-1204 4.0 02:34:58 10° WNW 02:38:53 41° SW 02:42:48 10° SSE
FALCON 9 DEB 4.0 02:36:08 10° W 02:39:27 46° NNW 02:42:50 10° ENE
STARLINK-1241 4.0 02:37:08 10° WNW 02:41:17 70° NNE 02:45:24 10° ESE
STARLINK-29 4.4 02:38:20 10° W 02:41:17 34° NNW 02:44:15 10° NE
STARLINK-1352 3.3 02:37:49 10° WSW 02:41:18 74° NNW 02:44:51 10° ENE
Landsat 5 3.7 02:36:50 10° SSE 02:41:19 89° W 02:45:53 10° NNW
OE (NEXTSAT) 4.3 02:37:57 10° W 02:41:26 72° S 02:44:54 10° E
Cosmos 1455 4.1 02:39:41 10° NW 02:41:50 15° W 02:43:58 10° WSW
CZ-2D R/B 3.5 02:38:14 10° NNE 02:42:20 81° WNW 02:46:32 10° SSW
Cosmos 2278 3.8 02:36:46 10° SSW 02:42:24 84° ESE 02:48:06 10° NNE
STARLINK-1368 3.3 02:39:58 10° WSW 02:43:29 72° NNW 02:47:01 10° ENE
USA 234 4.0 02:37:24 10° ENE 02:43:38 45° SE 02:49:50 10° SSW
STARLINK-1238 4.1 02:39:57 10° WNW 02:43:49 38° SW 02:47:41 10° SSE
Meteor 1-28 Rocket 3.6 02:40:43 10° S 02:44:21 44° W 02:48:00 10° NNW
Meteor 1-11 4.4 02:38:55 10° SSW 02:44:30 61° WNW 02:50:04 10° N
SL-16 R/B 4.2 02:41:39 10° WSW 02:45:03 15° W 02:48:27 10° NW
STARLINK-1369 3.4 02:41:55 10° WSW 02:45:24 70° NNW 02:48:54 10° ENE
STARLINK-1239 3.9 02:42:06 10° WNW 02:46:16 73° NNE 02:50:24 10° ESE
ATLAS CENTAUR R/B 3.5 02:44:08 10° W 02:47:27 27° SW 02:54:01 10° SSE
Cosmos 2074 Rocket 4.2 02:41:39 10° SSW 02:47:52 62° WNW 02:54:09 10° N
STARLINK-1372 3.4 02:44:23 10° WSW 02:47:53 67° NNW 02:51:25 10° ENE
Cosmos 2263 Rocket 3.1 02:42:52 10° NNW 02:48:25 54° ENE 02:53:52 10° SE
IRIDIUM 106 4.4 02:43:15 10° S 02:48:28 85° E 02:53:43 10° N
STARLINK-1201 4.2 02:45:00 10° WNW 02:48:48 35° SW 02:52:35 10° SSE
Cosmos 372 Rocket 3.9 02:44:55 10° NNW 02:50:02 72° WSW 02:55:09 10° SSE
STARLINK-1378 3.5 02:46:36 10° WSW 02:50:07 66° NNW 02:53:39 10° ENE
Cosmos 841 Rocket 3.6 02:45:03 10° SSW 02:50:16 67° WNW 02:55:30 10° NNE
STARLINK-1329 3.5 02:47:07 10° WSW 02:50:38 65° NNW 02:54:10 10° ENE
Cosmos 2322 Rocket 4.4 02:46:30 10° SSE 02:50:42 22° E 02:54:55 10° NE
STARLINK-1240 3.8 02:47:06 10° WNW 02:51:15 78° NNE 02:55:24 10° ESE
STARLINK-1365 3.5 02:47:52 10° WSW 02:51:22 63° NNW 02:54:53 10° ENE
STARLINK-1379 3.5 02:48:49 10° WSW 02:52:20 64° NNW 02:55:52 10° ENE
STARLINK-1362 3.5 02:49:25 10° WSW 02:52:55 63° NNW 02:56:28 10° ENE
STARLINK-1206 4.3 02:50:01 10° WNW 02:53:45 33° SW 02:57:28 10° SSE
Cosmos 1892 3.8 02:50:09 10° SSE 02:53:50 46° E 02:57:30 10° NNE
Cosmos 1869 3.3 02:50:26 10° N 02:54:21 90° ENE 02:58:13 10° S
COBE Rocket 4.4 02:49:46 10° SSW 02:54:26 43° W 02:59:16 10° NNW
Cosmos 1400 Rocket 3.5 02:51:05 10° NNW 02:54:52 36° W 02:58:39 10° SSW
STARLINK-1373 3.6 02:51:43 10° WSW 02:55:14 62° NNW 02:58:46 10° ENE
Cosmos 2221 2.5 02:51:24 10° NNW 02:55:44 78° W 03:00:03 10° S
STARLINK-1216 3.8 02:52:04 10° WNW 02:56:14 82° NNE 03:00:23 10° ESE
